Weather History for Joplin, MO

Change the Weather History Date:

Friday, March 29, 2013

  Actual Average Record
Temperature  
Mean Temperature 60 °F 53 °F  
Max Temperature 68 °F 64 °F 87 °F (1967)
Min Temperature 52 °F 41 °F 20 °F (1964)
Degree Days  
Heating Degree Days 5 13  
Month to date heating degree days 644 484  
Since 1 July heating degree days 3760 3738  
Cooling Degree Days 0 1  
Month to date cooling degree days 0 3  
Year to date cooling degree days 1 4  
Growing Degree Days 10 (Base 50)    
Moisture  
Dew Point 51 °F    
Average Humidity 78    
Maximum Humidity 100    
Minimum Humidity 55    
Precipitation  
Precipitation 0.33 in 0.12 in 0.99 in (1985)
Month to date precipitation 1.99 3.16  
Year to date precipitation 7.14 7.51  
Snow  
Snow 0.00 in - - ()
Month to date snowfall T  
Snow Depth 0.00 in    
Sea Level Pressure  
Sea Level Pressure 30.14 in    
Wind  
Wind Speed 6 mph (ESE)    
Max Wind Speed 13 mph    
Max Gust Speed 78 mph    
Visibility 9 miles    
Events Rain    
T = Trace of Precipitation, MM = Missing Value Source: NWS Daily Summary

Daily Weather History Graph

Daily Weather History Graph

Search for Another Location

Airport:

Trip Planner

Search our weather history database for the weather conditions in past years. The results will help you decide how hot, cold, wet, or windy it might be!

Date:

Astronomy

Mar. 29, 2013 Rise Set
Actual Time 7:07 AM CDT 7:38 PM CDT
Civil Twilight 6:41 AM CDT 8:04 PM CDT
Nautical Twilight 6:10 AM CDT 8:35 PM CDT
Astronomical Twilight 5:39 AM CDT 9:06 PM CDT
Moon 10:34 PM CDT (3/29) 8:21 AM CDT (3/29)
Length of Visible Light 13h 22m
Length of Day
12h 30m
Waning Gibbous, 93% of the Moon is Illuminated
Mar 29
Waning Gibbous
Apr 2
Last Quarter
Apr 10
New
Apr 18
First Quarter
Apr 25
Full

Hourly Weather History & Observations

Time (CDT) Temp. Dew Point Humidity Pressure Visibility Wind Dir Wind Speed Gust Speed Precip Events Conditions
12:53 AM 55.9 °F 46.0 °F 69% 30.12 in 10.0 mi South 5.8 mph - N/A   Mostly Cloudy
1:53 AM 54.0 °F 45.0 °F 72% 30.13 in 10.0 mi South 5.8 mph - N/A   Scattered Clouds
2:53 AM 55.0 °F 46.9 °F 74% 30.13 in 10.0 mi South 6.9 mph - N/A   Overcast
3:53 AM 55.9 °F 50.0 °F 80% 30.12 in 10.0 mi ENE 10.4 mph - 0.00 in Rain Light Rain
4:53 AM 53.1 °F 51.1 °F 93% 30.12 in 10.0 mi ENE 9.2 mph - 0.06 in Rain Light Rain
5:53 AM 52.0 °F 51.1 °F 97% 30.12 in 9.0 mi East 8.1 mph - 0.01 in Rain Light Rain
6:36 AM 51.8 °F 51.8 °F 100% 30.17 in 2.5 mi NE 10.4 mph - 0.09 in Rain Heavy Rain
6:51 AM 51.8 °F 51.8 °F 100% 30.16 in 8.0 mi ENE 10.4 mph 19.6 mph 0.12 in Rain Light Rain
6:53 AM 52.0 °F 51.1 °F 97% 30.16 in 9.0 mi ENE 9.2 mph 19.6 mph 0.12 in Rain Light Rain
7:46 AM 51.8 °F 51.8 °F 100% 30.19 in 2.5 mi East 6.9 mph - 0.06 in Rain Rain
7:48 AM 51.8 °F 51.8 °F 100% 30.18 in 3.0 mi East 9.2 mph - 0.07 in Rain Rain
7:53 AM 52.0 °F 51.1 °F 97% 30.17 in 2.0 mi East 9.2 mph - 0.09 in Rain Heavy Rain
8:06 AM 51.8 °F 51.8 °F 100% 30.19 in 5.0 mi East 5.8 mph - 0.02 in Rain Light Rain
8:53 AM 53.1 °F 51.1 °F 93% 30.18 in 5.0 mi SE 5.8 mph - 0.04 in Rain Light Rain
9:53 AM 54.0 °F 52.0 °F 93% 30.19 in 10.0 mi SE 5.8 mph - 0.01 in   Overcast
10:53 AM 55.9 °F 53.1 °F 90% 30.19 in 10.0 mi SE 5.8 mph - N/A   Overcast
11:53 AM 59.0 °F 53.1 °F 81% 30.18 in 10.0 mi SE 3.5 mph - N/A   Overcast
12:53 PM 62.1 °F 53.1 °F 72% 30.17 in 10.0 mi Calm Calm - N/A   Mostly Cloudy
1:48 PM 64.4 °F 53.6 °F 68% 30.15 in 10.0 mi NNE 6.9 mph - N/A   Mostly Cloudy
1:53 PM 64.9 °F 53.1 °F 65% 30.14 in 10.0 mi NNE 4.6 mph - N/A   Mostly Cloudy
2:53 PM 66.0 °F 51.1 °F 59% 30.12 in 10.0 mi East 6.9 mph - N/A   Mostly Cloudy
2:56 PM 66.2 °F 51.8 °F 60% 30.12 in 10.0 mi East 9.2 mph - N/A   Mostly Cloudy
3:53 PM 68.0 °F 51.1 °F 55% 30.10 in 10.0 mi Variable 4.6 mph - N/A   Mostly Cloudy
4:53 PM 66.9 °F 51.1 °F 57% 30.10 in 10.0 mi ESE 4.6 mph - N/A   Mostly Cloudy
5:53 PM 66.9 °F 50.0 °F 54% 30.09 in 10.0 mi East 4.6 mph - N/A   Mostly Cloudy
6:53 PM 64.9 °F 50.0 °F 58% 30.10 in 10.0 mi East 8.1 mph - N/A   Mostly Cloudy
7:53 PM 61.0 °F 50.0 °F 67% 30.10 in 10.0 mi East 4.6 mph - N/A   Mostly Cloudy
8:53 PM 57.9 °F 48.9 °F 72% 30.11 in 10.0 mi East 4.6 mph - N/A   Clear
9:53 PM 59.0 °F 50.0 °F 72% 30.12 in 10.0 mi ESE 5.8 mph - N/A   Overcast
10:53 PM 59.0 °F 48.0 °F 67% 30.11 in 10.0 mi SE 6.9 mph - N/A   Mostly Cloudy
11:53 PM 59.0 °F 48.0 °F 67% 30.11 in 10.0 mi SE 6.9 mph - N/A   Overcast